Temperature
24 23 23 23 22 22 21 21 21 20 20 20 20 19 19 19 19 19 19 19 19 19 19 19 18 18 18 18 18 18 18 18 18 18 18 18 18 18 18 18 18 18 18
23 23 23 23 22 22 22 21 21 21 20 20 20 20 20 19 19 19 19 19 19 19 19 19 19 18 18 18 18 18 18 18 18 18 18 18 18 19 19 19 19 18 18
23 23 23 23 23 22 22 22 21 21 21 20 20 20 19 19 19 19 19 19 19 19 19 19 19 19 19 18 18 18 18 18 18 18 18 18 18 18 19 19 19 19 18
23 23 23 23 23 23 22 22 22 21 21 20 20 20 20 20 20 19 19 19 19 19 19 19 19 19 19 19 18 18 18 18 18 18 18 18 18 18 18 18 18 18 18
24 23 23 23 23 23 23 22 22 21 21 21 20 20 20 20 20 19 19 19 19 19 19 19 19 19 19 19 19 18 18 18 18 18 18 18 18 18 18 18 18 18 18
24 24 24 23 23 23 22 22 22 21 21 21 21 20 20 20 20 19 19 19 19 19 19 19 19 19 19 19 19 19 18 18 18 18 18 18 18 18 18 18 18 18 18
24 23 23 23 23 23 22 22 22 22 21 21 21 21 20 20 20 20 19 19 19 19 19 19 19 19 19 19 19 19 18 18 18 18 18 18 18 18 18 18 18 18 18
24 24 24 23 23 23 23 22 22 22 22 21 21 21 20 20 20 20 19 19 19 19 19 19 19 19 19 19 19 19 18 18 18 18 18 18 18 18 18 18 18 17 17
24 23 23 23 23 23 23 23 22 22 22 22 21 21 20 20 20 20 20 19 19 19 19 19 19 19 19 19 19 19 18 18 18 18 18 18 18 18 18 18 18 17 17
24 24 23 23 23 23 23 22 22 22 22 22 21 21 21 20 20 20 19 19 19 19 19 19 19 19 19 19 18 18 18 18 18 18 18 18 18 18 18 18 18 17 17
23 23 23 23 23 23 22 22 22 22 22 22 21 21 21 20 20 20 19 19 19 19 19 19 19 19 19 18 18 18 18 18 18 18 18 18 18 18 18 18 17 17 17
23 23 23 23 23 23 22 22 22 22 22 22 21 21 20 20 20 20 19 19 19 19 19 19 19 19 18 18 18 18 18 18 18 18 18 17 17 17 17 17 17 17 17
22 23 23 23 22 22 22 22 22 22 22 21 21 20 20 20 20 20 19 19 19 19 19 19 19 18 18 18 18 18 18 18 18 18 17 17 17 17 17 17 17 17 17
22 22 22 22 22 22 22 21 21 21 21 21 20 20 20 20 19 19 19 19 19 19 19 18 18 18 18 18 18 18 18 18 18 17 17 17 17 17 17 17 17 17 17
21 22 22 21 21 22 21 21 21 21 20 20 20 20 19 19 19 19 19 19 19 19 18 18 18 18 18 17 17 17 17 17 17 17 17 17 17 17 17 16 16 16 16
21 21 21 21 21 21 21 21 20 20 20 19 19 19 19 19 19 19 19 19 18 18 18 18 18 18 18 17 17 17 17 17 17 17 17 17 16 16 16 16 16 16 16
20 20 20 20 20 20 20 20 20 20 19 19 19 19 18 18 18 18 18 18 18 18 18 17 17 17 17 17 17 17 17 17 17 17 17 16 16 16 16 16 16 16 16
20 19 19 20 20 20 20 20 19 19 19 19 19 18 18 18 18 18 18 17 17 17 17 17 17 17 17 17 17 16 16 16 16 16 16 16 16 16 16 16 16 15 15
20 20 19 19 19 19 19 19 19 19 18 18 18 18 18 18 18 17 17 17 17 17 16 16 16 16 16 17 16 16 16 16 15 15 15 15 15 15 15 15 15 15 15
19 19 19 19 19 19 18 18 18 18 18 18 18 17 17 17 17 17 17 16 16 16 16 16 16 16 16 16 16 16 16 15 15 15 15 15 15 15 15 14 14 14 14
19 19 18 18 18 18 18 18 18 17 17 17 17 17 17 16 16 16 16 16 16 16 15 15 15 15 15 15 15 15 15 15 15 14 14 14 14 14 14 14 14 14 14
18 18 18 18 18 18 18 17 17 17 17 16 16 16 16 16 16 16 15 16 15 15 15 15 15 15 15 15 15 15 14 14 14 14 14 14 14 14 13 13 13 13 13
17 17 18 18 17 17 17 17 17 16 16 16 16 16 16 15 15 15 15 15 15 15 15 14 14 14 14 14 14 14 14 14 14 13 13 13 13 13 13 13 13 13 13
17 17 17 17 17 16 16 16 16 16 15 15 15 15 15 15 15 14 14 14 14 14 14 14 14 14 14 14 13 13 13 13 13 13 13 13 12 12 12 12 12 12 12
16 16 16 16 16 16 15 15 15 15 15 15 14 14 14 14 14 14 14 14 14 14 14 14 13 13 13 13 13 13 13 12 12 12 12 12 12 12 12 12 12 12 11
15 15 15 15 15 15 15 14 14 14 14 14 14 14 14 13 13 13 13 13 13 13 13 13 13 13 13 13 13 12 12 12 12 12 12 11 11 11 11 11 11 11 11
Wind_Speed
12 13 14 15 13 12 11 10 9 8 6 4 4 4 4 4 4 5 8 9 10 10 7 5 5 5 5 5 5 3 3 3 2 1 1 2 2 3 4 4 4 6 9
11 13 13 14 14 14 12 11 10 9 8 6 5 4 4 3 4 4 5 8 9 9 8 6 6 5 4 4 4 4 3 2 3 3 1 1 3 3 3 2 4 5 5
16 15 14 14 14 14 14 13 12 10 9 7 4 3 2 2 2 3 4 5 8 8 7 7 6 6 5 5 5 5 5 3 2 3 4 3 3 2 3 2 3 3 3
13 12 14 14 15 15 14 12 12 10 9 8 7 7 6 5 5 4 4 5 6 7 7 7 7 6 5 5 5 5 4 5 3 2 2 3 4 3 2 3 2 3 3
14 14 14 15 14 13 12 11 11 10 9 9 9 8 6 5 3 3 4 5 4 5 6 7 6 6 5 6 5 4 4 4 4 3 2 2 2 2 3 3 3 2 3
13 12 11 10 10 12 11 11 11 10 9 9 9 9 8 7 6 5 6 5 3 4 5 6 6 6 5 6 6 5 5 5 4 4 3 3 3 3 3 4 3 2 3
11 11 10 11 11 13 13 12 12 11 10 10 9 9 9 8 8 7 7 6 4 4 5 6 5 5 5 5 5 6 5 5 4 4 4 3 4 3 3 3 2 2 2
8 10 12 12 12 13 13 12 13 12 12 11 10 9 8 7 6 7 6 7 6 6 6 6 6 6 5 5 5 5 5 5 5 5 4 3 4 3 4 4 3 2 2
9 9 9 10 11 13 14 14 14 12 12 12 10 9 8 7 7 6 6 5 5 6 6 7 6 6 6 5 5 4 5 5 5 5 5 4 3 3 3 3 4 4 3
8 8 7 9 10 10 10 11 11 11 10 11 10 9 8 7 6 6 6 6 6 6 6 6 6 6 6 5 5 4 5 5 5 4 4 4 4 3 3 3 3 4 4
7 7 6 7 8 8 8 10 11 9 9 10 9 9 8 7 6 5 6 6 5 6 6 7 7 7 6 6 5 5 5 5 5 4 5 5 4 3 3 2 2 3 4
6 5 6 5 6 6 7 9 10 10 9 9 8 8 7 7 7 7 6 6 6 6 6 6 6 7 7 6 6 7 6 6 6 6 5 5 4 4 4 3 3 4 4
6 5 4 4 5 5 5 6 8 9 8 8 8 8 7 7 8 7 6 5 5 5 5 5 6 6 6 7 6 6 6 7 7 7 6 6 5 5 4 4 4 4 4
7 6 5 4 4 5 5 5 5 6 8 8 8 8 8 7 7 6 6 5 5 5 4 4 5 5 5 5 6 5 6 6 6 6 6 6 7 6 6 5 4 4 3
7 6 5 4 5 5 5 4 4 4 6 6 7 7 6 6 6 6 6 5 5 5 4 3 3 3 4 5 5 5 5 5 5 4 5 6 6 7 6 5 5 4 4
6 6 5 5 5 5 5 4 4 3 5 6 6 6 6 6 6 6 6 5 4 4 3 3 3 3 4 4 6 6 5 4 5 4 4 4 4 5 6 6 6 6 6
6 5 5 4 4 4 4 5 3 3 4 5 5 5 5 5 5 6 4 4 4 3 3 3 3 4 4 5 5 7 5 4 4 5 4 3 3 3 3 4 4 5 6
7 6 4 4 4 4 4 4 4 4 4 5 5 5 5 5 5 5 5 4 3 3 3 3 3 4 4 5 6 6 5 3 4 4 5 4 3 3 3 3 2 3 4
5 5 5 5 4 4 4 4 4 4 5 4 4 4 5 5 4 5 4 3 3 3 3 3 3 3 3 4 5 5 4 3 4 4 4 4 4 4 4 3 3 2 3
5 5 4 5 5 4 5 5 4 4 4 4 4 4 4 4 4 4 4 3 3 3 3 3 3 3 3 3 5 6 3 3 3 2 2 4 4 4 4 4 4 4 5
5 6 5 4 4 4 5 5 3 3 3 3 3 3 4 4 4 4 3 3 3 2 2 2 2 2 3 3 4 5 4 4 3 2 2 2 3 4 4 5 5 6 5
4 5 5 3 3 4 5 5 3 2 2 3 3 2 2 3 3 3 2 2 2 2 2 1 1 1 1 1 2 4 5 4 3 3 2 2 3 4 4 4 5 5 3
4 4 5 4 2 3 5 4 3 2 3 4 3 2 1 1 2 3 2 2 1 1 1 1 1 1 1 1 1 1 3 3 2 2 2 2 2 2 2 4 4 3 2
2 3 5 4 2 2 3 4 3 3 4 4 3 2 2 1 1 1 2 2 2 2 2 2 3 2 1 0 0 0 1 2 1 1 1 2 2 2 2 2 2 3 3
1 2 4 3 2 2 2 2 3 4 4 3 3 2 2 2 1 1 0 1 2 3 4 3 3 2 2 3 3 2 1 2 2 1 0 1 1 1 2 2 2 2 2
1 2 2 2 2 2 2 2 3 3 4 3 2 1 1 1 1 1 2 4 1 2 0 1 2 1 2 1 2 2 2 3 3 2 1 2 2 3 3 3 3 2 3
Wind_Direction
186 173 170 169 166 165 165 167 166 171 164 159 161 162 172 174 175 185 184 181 179 176 174 178 178 178 182 190 183 176 175 196 175 119 330 323 285 248 230 217 213 216 217
178 177 172 171 172 173 174 171 173 175 173 175 172 170 165 174 181 183 181 184 179 177 181 178 182 180 178 182 182 172 171 199 173 156 132 336 328 310 261 235 219 225 216
180 180 177 176 175 178 180 180 179 177 178 173 156 150 126 130 163 176 187 188 183 185 186 184 181 180 177 185 192 184 175 190 203 175 159 170 227 280 305 271 243 231 221
177 180 181 178 181 185 182 179 177 176 176 169 166 164 172 184 195 186 188 189 185 184 188 182 181 181 181 187 197 187 178 174 196 212 206 191 176 181 284 306 279 252 230
179 182 184 185 184 183 181 177 172 174 176 172 172 173 180 187 180 174 178 186 189 187 188 184 183 187 190 193 197 184 183 183 186 196 200 204 201 187 188 255 287 296 263
182 186 186 179 178 178 179 176 174 178 178 175 175 178 179 180 174 179 183 187 190 192 192 186 187 192 191 193 196 191 189 191 188 194 193 187 190 204 196 223 247 262 275
179 184 183 180 181 179 178 179 180 183 183 182 186 187 185 183 186 187 188 186 189 197 203 195 192 193 194 192 189 190 195 193 191 198 206 206 213 194 178 186 222 248 274
174 181 183 181 181 179 177 179 186 189 188 188 193 195 189 188 192 191 188 191 196 199 196 194 194 194 193 195 188 191 197 196 201 209 206 213 227 208 192 185 183 226 280
166 174 175 176 180 185 185 185 186 188 190 192 190 194 195 193 192 191 188 191 194 195 191 194 196 197 197 196 189 200 204 198 205 213 211 216 228 223 211 196 182 182 222
163 162 162 170 180 188 187 182 183 189 190 188 190 193 194 193 188 185 192 192 195 196 189 196 196 196 197 199 196 205 208 203 214 212 211 219 222 223 214 206 202 191 195
159 160 164 174 170 170 177 183 185 185 187 189 187 187 184 185 184 188 200 200 196 194 199 202 199 199 200 197 194 206 203 207 220 224 218 228 220 218 223 212 203 206 197
135 140 155 159 157 168 184 196 190 187 189 191 187 190 183 180 190 201 204 204 204 204 204 201 195 198 200 200 199 206 207 208 218 225 224 235 228 221 226 215 220 221 211
122 112 126 142 155 164 178 185 186 187 184 186 188 189 189 190 195 200 199 198 200 205 206 201 200 204 205 203 207 208 209 210 215 215 217 224 213 221 222 220 226 227 226
136 128 131 138 147 145 148 157 161 175 179 181 184 190 191 192 190 192 193 193 190 194 204 206 208 211 210 206 210 213 214 215 217 216 215 214 211 216 217 222 226 222 215
134 133 136 142 138 130 130 138 146 161 172 176 183 189 184 180 178 182 193 190 187 192 194 199 208 211 212 219 214 220 220 215 220 220 218 219 214 210 212 219 217 210 210
140 135 126 124 131 138 142 137 145 159 158 168 179 175 175 179 183 190 192 188 193 188 174 187 202 208 224 221 212 211 215 207 208 217 227 228 220 218 217 219 214 205 204
139 140 141 135 138 141 139 144 151 146 149 160 164 164 169 175 182 188 189 193 194 181 177 195 206 222 228 211 204 209 204 204 207 213 219 224 226 210 226 228 226 229 223
142 145 142 139 136 125 118 130 129 139 146 145 149 156 156 166 176 180 194 195 181 177 201 212 230 234 231 208 200 202 202 209 219 215 206 202 208 209 194 201 220 244 248
143 139 138 138 125 115 112 103 116 129 132 139 155 162 160 164 170 174 182 181 172 192 205 187 195 216 235 207 199 200 197 212 228 224 210 196 203 210 183 178 205 248 269
121 121 118 112 115 122 113 110 121 127 145 159 163 154 157 165 171 174 171 171 166 184 187 177 186 199 227 226 211 201 193 206 222 228 210 195 192 197 180 187 201 233 257
122 120 117 125 141 144 128 128 120 146 177 157 138 139 151 162 164 159 157 161 169 175 189 195 211 212 229 238 214 199 197 202 209 222 234 231 203 202 204 203 214 232 240
116 124 132 139 140 138 134 136 146 177 151 129 130 134 145 157 150 146 159 168 171 173 186 195 255 286 278 269 215 197 201 193 197 223 237 248 235 230 231 228 231 241 236
133 140 139 130 121 133 132 139 168 154 132 126 130 134 126 133 153 160 165 172 174 178 191 194 220 266 314 356 24 159 182 178 191 218 217 238 248 252 248 237 238 230 213
127 123 122 126 132 135 135 156 162 151 140 143 148 145 130 110 88 127 160 175 184 187 196 203 222 239 254 289 345 12 126 128 161 208 272 284 272 264 260 269 246 221 211
54 101 129 142 165 165 161 170 161 150 144 149 149 151 152 152 118 59 325 219 230 216 206 212 206 203 237 244 209 183 182 180 185 155 2 337 319 299 293 283 256 235 224
85 100 122 149 175 177 188 200 184 161 147 142 149 157 155 153 149 130 25 16 4 2 24 195 194 236 227 224 188 193 200 190 168 145 197 249 253 250 249 250 255 245 237
Height
1494 1496 1499 1502 1504 1507 1509 1511 1513 1515 1516 1518 1520 1521 1522 1524 1525 1527 1528 1530 1531 1533 1534 1535 1537 1538 1540 1541 1543 1544 1545 1546 1547 1548 1548 1548 1548 1548 1548 1549 1549 1549 1549
1493 1495 1497 1499 1501 1504 1506 1509 1511 1513 1515 1517 1519 1521 1522 1523 1525 1526 1527 1529 1530 1532 1533 1534 1536 1537 1538 1540 1541 1542 1543 1544 1545 1546 1546 1546 1547 1546 1546 1546 1546 1547 1547
1488 1492 1494 1496 1499 1501 1504 1506 1508 1511 1513 1515 1518 1520 1521 1523 1524 1525 1526 1527 1529 1530 1532 1533 1534 1535 1536 1537 1539 1540 1541 1542 1543 1544 1545 1545 1544 1544 1544 1544 1544 1544 1544
1486 1489 1492 1494 1496 1499 1502 1504 1507 1509 1511 1514 1515 1517 1518 1520 1521 1523 1524 1526 1527 1529 1530 1531 1532 1533 1534 1536 1537 1538 1539 1540 1540 1542 1542 1543 1543 1543 1542 1542 1542 1542 1542
1483 1485 1488 1490 1493 1497 1500 1503 1505 1507 1509 1511 1513 1515 1517 1519 1520 1522 1523 1524 1526 1527 1528 1530 1531 1532 1533 1534 1535 1535 1536 1537 1538 1539 1540 1540 1540 1541 1541 1539 1540 1540 1540
1480 1482 1485 1488 1492 1495 1498 1500 1503 1505 1507 1509 1511 1513 1515 1517 1518 1519 1521 1522 1524 1525 1526 1527 1528 1529 1530 1531 1532 1533 1534 1535 1535 1536 1537 1538 1538 1538 1538 1537 1537 1537 1537
1477 1480 1482 1486 1489 1492 1495 1497 1499 1502 1504 1507 1509 1511 1512 1514 1516 1517 1519 1520 1521 1523 1524 1525 1526 1527 1528 1529 1529 1530 1531 1532 1532 1533 1534 1534 1535 1535 1535 1535 1535 1535 1535
1474 1476 1478 1481 1485 1488 1491 1493 1496 1498 1501 1503 1506 1508 1510 1512 1513 1515 1517 1518 1519 1521 1522 1523 1524 1525 1526 1526 1527 1527 1528 1529 1529 1530 1531 1531 1532 1532 1532 1532 1533 1532 1532
1472 1474 1476 1478 1482 1485 1487 1489 1492 1495 1498 1500 1502 1505 1507 1509 1511 1513 1515 1516 1517 1519 1520 1521 1522 1522 1523 1524 1524 1524 1525 1526 1526 1527 1528 1528 1528 1529 1529 1529 1530 1530 1529
1470 1472 1474 1476 1479 1482 1485 1488 1490 1492 1494 1497 1499 1502 1504 1506 1508 1511 1512 1513 1514 1516 1517 1518 1518 1519 1520 1521 1521 1522 1522 1523 1523 1524 1524 1524 1525 1525 1526 1526 1526 1527 1527
1470 1471 1472 1474 1477 1480 1483 1485 1486 1489 1492 1493 1496 1498 1500 1503 1505 1507 1509 1511 1512 1512 1513 1514 1515 1515 1516 1517 1518 1519 1519 1520 1520 1520 1521 1521 1521 1521 1522 1522 1523 1523 1523
1469 1470 1472 1474 1476 1478 1480 1481 1483 1485 1487 1490 1492 1495 1497 1499 1501 1503 1505 1507 1508 1509 1510 1511 1511 1512 1513 1513 1514 1514 1515 1515 1516 1516 1517 1517 1517 1517 1518 1518 1519 1519 1519
1468 1469 1471 1473 1474 1475 1476 1477 1480 1482 1484 1487 1489 1492 1494 1496 1497 1499 1500 1502 1504 1505 1506 1507 1507 1508 1508 1508 1510 1510 1510 1511 1511 1512 1512 1513 1513 1513 1514 1514 1515 1515 1516
1466 1468 1470 1471 1472 1473 1474 1476 1477 1479 1481 1484 1486 1488 1490 1492 1494 1495 1497 1498 1499 1501 1502 1503 1504 1504 1504 1504 1505 1506 1506 1506 1507 1507 1508 1508 1508 1509 1510 1510 1510 1511 1512
1464 1466 1469 1470 1470 1470 1472 1474 1476 1477 1480 1481 1483 1484 1487 1489 1490 1492 1493 1493 1494 1496 1498 1499 1500 1500 1500 1500 1501 1502 1502 1502 1502 1502 1503 1504 1504 1504 1505 1506 1506 1507 1507
1463 1465 1467 1467 1467 1468 1470 1472 1474 1475 1477 1478 1479 1481 1483 1485 1487 1488 1488 1489 1491 1492 1493 1493 1494 1495 1495 1496 1497 1498 1498 1498 1498 1498 1499 1499 1499 1500 1501 1502 1503 1503 1503
1462 1464 1465 1466 1466 1467 1468 1470 1471 1473 1474 1476 1477 1478 1480 1482 1483 1484 1485 1486 1486 1487 1489 1490 1490 1490 1491 1491 1492 1493 1493 1493 1493 1494 1494 1494 1495 1495 1496 1497 1498 1498 1498
1460 1462 1464 1465 1465 1465 1467 1468 1470 1471 1472 1473 1474 1475 1476 1477 1479 1480 1481 1482 1482 1483 1485 1485 1485 1485 1485 1486 1486 1487 1488 1488 1489 1489 1489 1490 1490 1491 1491 1492 1492 1493 1493
1459 1460 1462 1464 1464 1465 1466 1467 1468 1469 1470 1470 1472 1473 1473 1474 1476 1476 1477 1479 1479 1480 1481 1481 1480 1480 1481 1481 1482 1483 1483 1483 1483 1484 1484 1485 1485 1486 1487 1487 1487 1488 1488
1458 1459 1461 1463 1463 1464 1465 1466 1466 1467 1468 1468 1469 1470 1471 1472 1473 1473 1475 1476 1476 1476 1477 1476 1477 1477 1477 1477 1477 1478 1478 1478 1478 1479 1479 1480 1481 1481 1482 1482 1482 1483 1483
1456 1458 1460 1461 1462 1463 1464 1465 1465 1465 1465 1467 1467 1468 1468 1469 1470 1471 1472 1473 1473 1473 1473 1473 1473 1473 1473 1473 1473 1473 1473 1474 1474 1474 1475 1475 1476 1476 1477 1477 1478 1478 1479
1456 1457 1459 1459 1459 1461 1462 1462 1462 1463 1463 1465 1465 1465 1466 1466 1467 1468 1469 1470 1470 1469 1469 1469 1469 1469 1469 1469 1468 1469 1470 1470 1471 1471 1471 1471 1472 1472 1472 1472 1472 1473 1474
1455 1456 1456 1455 1456 1458 1458 1459 1460 1460 1461 1463 1463 1463 1463 1464 1465 1465 1465 1466 1467 1466 1466 1466 1466 1466 1466 1466 1465 1465 1466 1466 1467 1468 1468 1468 1468 1469 1469 1468 1468 1469 1470
1453 1452 1453 1454 1454 1455 1456 1457 1457 1458 1459 1459 1460 1460 1461 1461 1462 1463 1463 1463 1463 1463 1463 1463 1463 1463 1463 1463 1463 1463 1463 1463 1464 1464 1464 1465 1465 1465 1465 1465 1465 1465 1466
1452 1451 1451 1453 1453 1454 1454 1455 1455 1456 1456 1456 1457 1458 1459 1459 1459 1460 1460 1460 1460 1460 1460 1460 1460 1460 1459 1459 1460 1460 1459 1460 1460 1460 1461 1461 1461 1461 1460 1461 1461 1461 1461
1451 1451 1451 1452 1453 1453 1453 1453 1454 1454 1454 1454 1455 1456 1456 1456 1457 1457 1457 1458 1458 1458 1458 1458 1458 1457 1457 1457 1457 1457 1457 1457 1457 1457 1457 1457 1457 1456 1456 1456 1456 1456 1457